Oelwein, IA

7:17 PM CST on January 22, 2018 (GMT -0600)
Oelwein Municipal

Weather History for KOLZ - February, 2014

Change the Weather History Date:

Thursday, February 20, 2014

  Actual Average Record
Temperature  
Mean Temperature 30 °F -  
Max Temperature 37 °F 34 °F 59 °F (1981)
Min Temperature 23 °F 15 °F -17 °F (1959)
Degree Days  
Heating Degree Days 35    
Moisture  
Dew Point 33 °F    
Average Humidity 99    
Maximum Humidity 100    
Minimum Humidity 87    
Precipitation  
Precipitation 0.13 in - - ()
Sea Level Pressure  
Sea Level Pressure 29.45 in    
Wind  
Wind Speed 21 mph (ESE)    
Max Wind Speed 46 mph    
Max Gust Speed 55 mph    
Visibility 4 miles    
Events Rain , Snow    
Averages and records for this station are not official NWS values.
T = Trace of Precipitation, MM = Missing Value Source: NWS Daily Summary

Daily Weather History Graph

Daily Weather History Graph

Search for Another Location

Airport or City:

Trip Planner

Search our weather history database for the weather conditions in past years. The results will help you decide how hot, cold, wet, or windy it might be!

Date:

Astronomy

Feb. 20, 2014 Rise Set
Actual Time 6:57 AM CST 5:46 PM CST
Civil Twilight 6:28 AM CST 6:14 PM CST
Nautical Twilight 5:56 AM CST 6:47 PM CST
Astronomical Twilight 5:23 AM CST 7:20 PM CST
Moon 11:49 PM CST (2/20) 9:32 AM CST (2/20)
Length of Visible Light 11h 46m
Length of Day
10h 48m
Waning Gibbous, 70% of the Moon is Illuminated
Feb 20
Waning Gibbous
Feb 22
Last Quarter
Mar 1
New
Mar 8
First Quarter
Mar 16
Full

Hourly Weather History & Observations

Time (CST) Temp. Windchill Dew Point Humidity Pressure Visibility Wind Dir Wind Speed Gust Speed Precip Events Conditions
12:15 AM 35.6 °F 25.5 °F 32.0 °F 87% 29.72 in 10.0 mi SE 17.3 mph - N/A   Overcast
12:35 AM 35.6 °F 24.2 °F 32.0 °F 87% 29.70 in 10.0 mi SE 21.9 mph - N/A   Overcast
12:55 AM 35.6 °F 24.8 °F 33.8 °F 93% 29.70 in 10.0 mi SSE 19.6 mph - N/A   Overcast
1:15 AM 37.4 °F 27.2 °F 33.8 °F 87% 29.69 in 10.0 mi SSE 19.6 mph - N/A   Overcast
1:35 AM 35.6 °F 25.9 °F 33.8 °F 93% 29.68 in 10.0 mi SSE 16.1 mph - N/A   Overcast
1:55 AM 35.6 °F 25.2 °F 35.6 °F 100% 29.65 in 10.0 mi SE 18.4 mph 25.3 mph N/A   Mostly Cloudy
2:15 AM 35.6 °F 20.8 °F 35.6 °F 100% 29.62 in 9.0 mi SSE 40.3 mph 46.0 mph N/A   Overcast
2:35 AM 35.6 °F 21.0 °F 35.6 °F 100% 29.63 in 6.0 mi SSE 39.1 mph 44.9 mph N/A   Overcast
2:55 AM 35.6 °F 22.3 °F 35.6 °F 100% 29.64 in 9.0 mi SSE 31.1 mph - N/A   Overcast
3:15 AM 33.8 °F 20.5 °F 33.8 °F 100% 29.63 in 7.0 mi SSE 27.6 mph - N/A   Overcast
3:35 AM 33.8 °F 21.3 °F 33.8 °F 100% 29.63 in 6.0 mi SE 24.2 mph - N/A   Overcast
3:55 AM 33.8 °F 22.5 °F 33.8 °F 100% 29.63 in 5.0 mi SE 19.6 mph - 0.02 in   Overcast
4:15 AM 33.8 °F 23.2 °F 33.8 °F 100% 29.62 in 4.0 mi SE 17.3 mph 23.0 mph N/A   Overcast
4:35 AM 33.8 °F 26.4 °F 33.8 °F 100% 29.65 in 4.0 mi SE 9.2 mph 18.4 mph N/A   Overcast
4:55 AM 33.8 °F 26.4 °F 33.8 °F 100% 29.64 in 3.0 mi ESE 9.2 mph - 0.03 in   Overcast
5:15 AM 33.8 °F 25.3 °F 33.8 °F 100% 29.63 in 3.0 mi East 11.5 mph - N/A   Overcast
5:35 AM 33.8 °F 27.0 °F 33.8 °F 100% 29.62 in 2.5 mi ENE 8.1 mph - N/A   Overcast
5:55 AM 33.8 °F 27.0 °F 33.8 °F 100% 29.62 in 2.0 mi East 8.1 mph - 0.03 in   Overcast
6:15 AM 33.8 °F 26.4 °F 33.8 °F 100% 29.60 in 2.5 mi East 9.2 mph - N/A   Overcast
6:35 AM 33.8 °F 23.9 °F 33.8 °F 100% 29.57 in 2.5 mi East 15.0 mph - N/A   Overcast
6:55 AM 33.8 °F 23.9 °F 33.8 °F 100% 29.57 in 2.0 mi East 15.0 mph - N/A   Overcast
7:15 AM 33.8 °F 24.3 °F 33.8 °F 100% 29.57 in 3.0 mi East 13.8 mph - N/A   Overcast
7:35 AM 33.8 °F 24.3 °F 33.8 °F 100% 29.56 in 2.5 mi East 13.8 mph 19.6 mph N/A   Overcast
7:55 AM 33.8 °F 24.3 °F 33.8 °F 100% 29.55 in 3.0 mi East 13.8 mph - N/A   Overcast
8:15 AM 35.6 °F 25.9 °F 35.6 °F 100% 29.55 in 4.0 mi East 16.1 mph - N/A   Overcast
8:35 AM 35.6 °F 26.2 °F 35.6 °F 100% 29.57 in 6.0 mi East 15.0 mph - N/A   Overcast
8:55 AM 35.6 °F 27.5 °F 35.6 °F 100% 29.55 in 7.0 mi East 11.5 mph 17.3 mph N/A   Overcast
9:15 AM 35.6 °F 26.6 °F 35.6 °F 100% 29.54 in 5.0 mi ESE 13.8 mph - N/A   Overcast
9:35 AM 35.6 °F 26.2 °F 35.6 °F 100% 29.50 in 4.0 mi East 15.0 mph - N/A   Overcast
9:50 AM 35.6 °F 25.9 °F 35.6 °F 100% 29.49 in 3.0 mi East 16.1 mph - N/A   Overcast
10:15 AM 35.6 °F 25.5 °F 35.6 °F 100% 29.44 in 3.0 mi East 17.3 mph 23.0 mph N/A   Overcast
10:35 AM 35.6 °F 25.9 °F 35.6 °F 100% 29.45 in 3.0 mi East 16.1 mph - N/A   Overcast
10:55 AM 35.6 °F 24.2 °F 35.6 °F 100% 29.38 in 3.0 mi East 21.9 mph - N/A   Overcast
12:15 PM 35.6 °F 24.8 °F 35.6 °F 100% 29.30 in 2.0 mi East 19.6 mph - N/A   Overcast
2:10 PM 33.8 °F 22.5 °F 33.8 °F 100% 29.26 in 1.8 mi WNW 19.6 mph - N/A Rain Rain
2:35 PM 33.8 °F 23.9 °F 33.8 °F 100% 29.17 in 1.5 mi NNE 15.0 mph 23.0 mph N/A Rain Light Rain
5:15 PM 33.8 °F 24.3 °F 33.8 °F 100% 29.15 in 3.0 mi NW 13.8 mph - N/A   Overcast
5:35 PM 32.0 °F 20.1 °F 32.0 °F 100% 29.16 in 0.8 mi WNW 19.6 mph - N/A Snow Light Snow
5:55 PM 32.0 °F 19.2 °F 32.0 °F 100% 29.16 in 1.0 mi WNW 23.0 mph - 0.02 in Snow Light Snow
6:15 PM 32.0 °F 19.2 °F 32.0 °F 100% 29.16 in 2.5 mi WNW 23.0 mph - N/A Snow Light Snow
6:35 PM 33.8 °F 22.2 °F 33.8 °F 100% 29.17 in 6.0 mi WNW 20.7 mph - N/A Snow Light Snow
6:55 PM 32.0 °F 19.2 °F 32.0 °F 100% 29.19 in 1.5 mi West 23.0 mph 31.1 mph 0.02 in Snow Light Snow
7:15 PM 32.0 °F 18.1 °F 32.0 °F 100% 29.20 in 1.8 mi West 27.6 mph 36.8 mph N/A Snow Light Snow
7:35 PM 32.0 °F 17.9 °F 32.0 °F 100% 29.21 in 2.0 mi West 28.8 mph 41.4 mph N/A Snow Light Snow
7:55 PM 32.0 °F 17.4 °F 32.0 °F 100% 29.22 in 2.0 mi West 31.1 mph 40.3 mph 0.01 in   Overcast
8:15 PM 32.0 °F 17.2 °F 32.0 °F 100% 29.23 in 2.5 mi West 32.2 mph 41.4 mph N/A   Overcast
8:35 PM 32.0 °F 17.0 °F 32.0 °F 100% 29.24 in 2.5 mi West 33.4 mph 41.4 mph N/A   Overcast
8:55 PM 32.0 °F 16.5 °F 32.0 °F 100% 29.24 in 2.0 mi West 35.7 mph 46.0 mph N/A   Overcast
9:15 PM 32.0 °F 16.3 °F 32.0 °F 100% 29.25 in 2.0 mi WNW 36.8 mph 51.8 mph N/A   Overcast
9:35 PM 30.2 °F 13.7 °F 30.2 °F 100% 29.27 in 1.2 mi West 38.0 mph 48.3 mph N/A Snow Light Snow
9:55 PM 28.4 °F 11.8 °F 28.4 °F 100% 29.28 in 0.8 mi WNW 34.5 mph 43.7 mph N/A   Overcast
10:15 PM 28.4 °F 13.8 °F 28.4 °F 100% 29.30 in 1.2 mi WNW 25.3 mph 47.2 mph N/A Rain Light Freezing Rain
10:35 PM 26.6 °F 8.9 °F 26.6 °F 100% 29.30 in 1.0 mi WNW 36.8 mph 46.0 mph N/A Rain Light Freezing Rain
10:55 PM 24.8 °F 6.6 °F 24.8 °F 100% 29.32 in 0.5 mi WNW 35.7 mph 46.0 mph N/A Rain Light Freezing Rain
11:15 PM 24.8 °F 6.8 °F 24.8 °F 100% 29.33 in 1.0 mi WNW 34.5 mph 50.6 mph N/A Rain Light Freezing Rain
11:35 PM 23.0 °F 2.2 °F 23.0 °F 100% 29.33 in 2.0 mi WNW 46.0 mph 55.2 mph N/A Rain Light Freezing Rain
11:55 PM 23.0 °F 4.4 °F 21.2 °F 93% 29.36 in 2.0 mi West 34.5 mph 42.6 mph N/A Rain Light Freezing Rain